EW2973 Weather Reports


Display with metric or nautical units.
time (UTC)temp
F
wind
direction
speed
MPH
gust
MPH
rain 1hr
in
rain 24hr
in
rain mn
in
humidity
%
barometer
mb
20260906004533 76 360 0.0 0.0 0.00 0.57 0.57 82 1014.3
20260906003032 76 13 0.0 0.0 0.00 0.57 0.57 81 1014.3
20260906001543 76 349 0.0 0.0 0.00 0.57 0.57 82 1014.2
20260906000025 77 349 0.0 0.0 0.00 0.57 0.57 82 1014.2
20260905234517 77 349 0.0 0.0 0.00 0.57 0.57 80 1014.4
20260905233035 78 349 0.0 0.0 0.00 0.57 0.57 77 1014.1
20260905231532 79 349 0.0 0.0 0.00 0.57 0.57 76 1013.8
20260905230034 79 349 0.0 0.0 0.00 0.57 0.57 74 1013.7
20260905224530 80 344 0.0 0.0 0.00 0.57 0.57 75 1013.5
20260905223042 80 344 0.0 0.0 0.00 0.57 0.57 74 1013.4
20260905221526 80 344 0.0 0.0 0.00 0.57 0.57 72 1013.3
20260905220024 81 344 0.0 0.0 0.00 0.57 0.57 69 1013.5
20260905214540 82 352 0.0 0.0 0.00 0.57 0.57 69 1013.6
20260905213034 83 351 0.0 0.0 0.00 0.57 0.57 69 1013.5
20260905211532 83 269 0.0 0.0 0.00 0.57 0.57 68 1013.4
20260905210044 81 9 0.0 0.0 0.00 0.57 0.57 70 1013.5
20260905204533 81 271 0.0 0.0 0.00 0.57 0.57 72 1013.7
20260905203026 81 271 0.0 0.0 0.00 0.57 0.57 72 1013.8
20260905201524 81 271 0.0 0.0 0.00 0.57 0.57 71 1014.0
20260905200021 82 345 0.0 0.0 0.00 0.57 0.57 69 1014.1
20260905194534 83 338 0.0 0.0 0.00 0.57 0.57 68 1014.1
20260905193017 82 350 0.0 0.0 0.00 0.57 0.57 68 1014.3
20260905191508 81 252 0.0 0.0 0.00 0.57 0.57 73 1014.6
20260905190004 80 252 0.0 0.0 0.00 0.57 0.57 73 1014.7
20260905184535 81 261 0.0 0.0 0.00 0.57 0.57 69 1014.7
20260905183034 82 208 0.0 5.0 0.00 0.57 0.57 68 1014.8
20260905181520 82 150 0.0 0.0 0.00 0.57 0.57 68 1014.9
20260905180017 82 252 0.0 2.0 0.00 0.57 0.57 70 1014.9
20260905174515 82 264 0.0 0.0 0.00 0.57 0.57 67 1014.9
20260905173015 82 264 0.0 0.0 0.00 0.57 0.57 71 1015.1
20260905171507 81 57 0.0 2.0 0.00 0.63 0.57 70 1015.2
20260905170028 81 46 0.0 2.0 0.00 0.65 0.57 72 1015.3
20260905164525 80 164 0.0 1.0 0.00 0.68 0.57 74 1015.3
20260905163019 80 31 0.0 0.0 0.00 0.68 0.57 75 1015.3
20260905161517 80 169 0.0 0.0 0.00 0.68 0.57 75 1015.1
20260905160011 79 99 0.0 2.0 0.00 0.69 0.57 80 1015.0
20260905154510 76 267 0.0 0.0 0.00 0.77 0.57 80 1015.0
20260905153009 74 178 0.0 0.0 0.00 0.78 0.57 86 1014.8
20260905151529 73 351 0.0 0.0 0.00 0.79 0.57 88 1015.0
20260905150026 72 360 0.0 0.0 0.00 0.79 0.57 91 1014.9
20260905144519 71 150 0.0 0.0 0.00 0.90 0.57 94 1014.8
20260905143023 70 150 0.0 0.0 0.00 0.90 0.57 95 1014.3
20260905141515 70 150 0.0 0.0 0.00 0.90 0.57 95 1014.3
20260905140010 69 217 0.0 2.0 0.00 0.90 0.57 95 1014.5
20260905134536 69 192 1.0 4.0 0.00 0.90 0.57 95 1014.8
20260905133029 69 213 0.0 0.0 0.00 0.90 0.57 95 1014.6
20260905131527 69 173 0.0 3.0 0.00 0.90 0.57 95 1014.7
20260905130025 69 197 1.0 3.0 0.01 0.90 0.57 95 1015.0
20260905124524 68 151 1.0 4.0 0.02 0.90 0.57 95 1015.5
20260905123049 68 262 2.0 7.0 0.03 0.90 0.57 95 1015.7
20260905121515 68 285 1.0 5.0 0.04 0.90 0.57 95 1015.5
20260905120033 68 264 3.0 7.0 0.06 0.89 0.56 95 1015.8
20260905114532 68 261 2.0 4.0 0.09 0.88 0.55 95 1015.0
20260905113033 68 153 0.0 3.0 0.13 0.87 0.54 95 1014.9
20260905111528 68 243 0.0 0.0 0.18 0.86 0.52 95 1016.5
20260905110024 68 9 0.0 0.0 0.19 0.83 0.50 95 1016.6
20260905104520 68 9 0.0 0.0 0.37 0.79 0.46 95 1016.7
20260905103012 69 9 0.0 0.0 0.35 0.74 0.41 94 1016.6
20260905101512 69 5 0.0 3.0 0.30 0.68 0.35 94 1016.1
20260905100548 69 346 2.0 4.0 0.28 0.64 0.31 93 1016.1
20260905094526 71 360 3.0 10.0 0.07 0.42 0.09 92 1017.0
20260905093027 72 360 2.0 3.0 0.04 0.39 0.06 95 1015.1
20260905091523 72 257 0.0 0.0 0.05 0.38 0.05 95 1015.2
20260905090018 72 204 0.0 0.0 0.03 0.36 0.03 95 1015.2
20260905084515 72 248 0.0 0.0 0.02 0.35 0.02 95 1014.9
20260905083016 72 248 0.0 2.0 0.02 0.35 0.02 95 1015.3
20260905081507 72 260 0.0 0.0 0.00 0.33 0.00 95 1015.2
20260905080041 72 239 2.0 3.0 0.00 0.33 0.00 95 1014.3
20260905074531 72 204 0.0 0.0 0.00 0.33 0.00 95 1014.1
20260905073031 72 138 0.0 0.0 0.00 0.33 0.00 95 1013.8
20260905071530 72 148 0.0 0.0 0.00 0.33 0.00 95 1014.5
20260905070024 72 148 0.0 0.0 0.00 0.33 0.00 95 1014.5
20260905064512 72 136 0.0 0.0 0.00 0.33 0.00 95 1014.7
20260905063009 72 136 0.0 0.0 0.00 0.33 0.00 95 1014.9
20260905061535 71 108 0.0 0.0 0.00 0.33 0.00 95 1014.9
20260905060042 71 108 0.0 0.0 0.00 0.33 0.00 94 1015.1
20260905054531 71 108 0.0 0.0 0.00 0.33 0.00 94 1015.3
20260905053023 71 108 0.0 0.0 0.00 0.33 0.00 95 1015.4
20260905051525 71 108 0.0 0.0 0.00 0.33 0.00 94 1015.5
20260905050018 71 108 0.0 0.0 0.00 0.33 0.00 95 1015.5
20260905044516 71 108 0.0 0.0 0.00 0.33 0.00 94 1015.5
20260905043031 71 108 0.0 0.0 0.00 0.33 0.00 94 1015.7
20260905041535 71 108 0.0 0.0 0.00 0.33 0.00 94 1015.9
20260905040038 71 108 0.0 0.0 0.00 0.33 0.00 94 1015.9
20260905034525 71 108 0.0 0.0 0.00 0.33 0.33 94 1015.8
20260905033020 71 108 0.0 0.0 0.00 0.33 0.33 94 1015.9
20260905031527 72 108 0.0 0.0 0.00 0.33 0.33 93 1016.0
20260905030032 72 120 0.0 0.0 0.00 0.33 0.33 93 1016.1
20260905024533 72 120 0.0 0.0 0.00 0.33 0.33 93 1016.1
20260905023031 72 174 0.0 0.0 0.00 0.33 0.33 93 1016.1
20260905021536 72 174 0.0 0.0 0.00 0.33 0.33 93 1016.1
20260905020030 73 174 0.0 0.0 0.00 0.33 0.33 92 1016.1
20260905014519 73 174 0.0 0.0 0.00 0.33 0.33 92 1015.8
20260905013015 73 174 0.0 0.0 0.00 0.33 0.33 91 1015.8
20260905011550 74 174 0.0 0.0 0.00 0.33 0.33 91 1015.8
20260905010038 74 174 0.0 0.0 0.00 0.33 0.33 90 1015.9